KTULTNCM

Guest
Details From KTUL - Tulsa Intl
To TNCM - St Maarten - Princess Juliana Intl
Flight Number -
Tags Decoded
Created
Modified
Stats Distance 2,240 nm / 4,149 km
Max Altitude 0 ft / 0 m
Waypoints 4
Social Downloads 1
Likes 0
Share VATSIM

Download

Looking for another format? Having issues loading an existing format? Contact us
Advertisement - Login to hide

Notes

Decoded

Route

KTUL KDFW KMIA TNCM

ID Type Via Altitude Latitude Longitude Leg Dist Tot Dist Heading (true) Name
O KTUL APT - 0 ft / 0 m 36.19541˚ -95.89902˚ - 0 nm - -
KDFW APT - 0 ft / 0 m 32.91257˚ -97.02148˚ 204 nm 204 nm 196° / 195° -
KMIA APT - 0 ft / 0 m 25.80290˚ -80.30154˚ 972 nm 1176 nm 112° / 120° -
O TNCM APT - 0 ft / 0 m 18.03937˚ -63.11961˚ 1063 nm 2240 nm 113° / 119° -

Altitude Profile

Advertisement - Login to hide

Weather


0- 5 10 15 20 25 30 35+ Temperature / ° C

Clouds and Precipitation
Forecast for 2018-05-20 18:00 UTC. Updated 4 hours ago

Ground ~20,000 ft ~40,000 ft Winds

KTUL

Details ICAO KTUL (TUL)
Name Tulsa Intl
Region United States
Timezone America/Chicago (UTC-5.0)
Stats Elevation 677 ft / 206 m (AMSL)
Location 36.198199° -95.889458°
Runways 3
Magnetic Variation 2.620° E

METAR

KTUL 202053Z 30006KT 10SM FEW026 SCT070 BKN120 24/18 A3001 RMK AO2 SLP154 60000 T02440183 58007 $

Decode

TAF

TAF KTUL 201720Z 2018/2118 22005KT P6SM BKN025 FM202000 29007KT P6SM VCSH SCT025 BKN040 FM210100 33005KT P6SM BKN100 BKN250 FM211000 VRB03KT 4SM BR BKN012 FM211500 30005KT P6SM BKN250

Decode

Departure Runways

ID Width Length Bearing (true) Bearing (mag) Surface Threshold Offset Overrun Length
08 151 ft / 46 m 7,361 ft / 2,244 m 89.42° 86.80° Concrete 167 ft / 51 m 177 ft / 54 m
18L 200 ft / 61 m 10,023 ft / 3,055 m 183.02° 180.40° Concrete 190 ft / 58 m 400 ft / 122 m
18R 151 ft / 46 m 6,116 ft / 1,864 m 183.07° 180.45° Asphalt 180 ft / 55 m 0 ft / 0 m
26 151 ft / 46 m 7,361 ft / 2,244 m 269.44° 266.82° Concrete 171 ft / 52 m 0 ft / 0 m
36L 151 ft / 46 m 6,116 ft / 1,864 m 3.07° 0.45° Asphalt 164 ft / 50 m 0 ft / 0 m
36R 200 ft / 61 m 10,023 ft / 3,055 m 3.02° 0.40° Concrete 174 ft / 53 m 400 ft / 122 m

TNCM

Details ICAO TNCM (SXM)
Name St Maarten - Princess Juliana Intl
Region Caribbean Netherlands, Aruba, Curaçao, Sint Maarten
Timezone Unknown (UTC+0.0)
Stats Elevation 12 ft / 4 m (AMSL)
Location 18.040889° -63.108974°
Runways 1
Magnetic Variation 14.337° W

METAR

TNCM 202100Z 07014KT 030V100 9999 SCT020 28/21 Q1016 A3001 NOSIG

Decode

TAF

TAF TNCM 201720Z 2018/2118 08017KT P6SM VCSH SCT020 FM202300 09010KT P6SM VCSH SCT018

Decode

Destination Runways

ID Width Length Bearing (true) Bearing (mag) Surface Threshold Offset Overrun Length
10 148 ft / 45 m 7,464 ft / 2,275 m 81.43° 95.77° Asphalt 0 ft / 0 m 151 ft / 46 m
28 148 ft / 45 m 7,464 ft / 2,275 m 261.44° 275.78° Asphalt 397 ft / 121 m 0 ft / 0 m

Popular Alternatives